User: anonymous   Login
Location: Champaign/Urbana Astronomical Society Observatory
(40.0333°N, 88.2833°W)
Time: 17:32:22
(UTC-05:00)
Language:

YUBILEINY - Orbit

View from above orbital plane
View from above orbital plane
View from above satellite
View from above satellite

Ground track
Ground track

The orbit data is extracted from the following two-line orbital elements,

1 32953U 08025A   19139.46307393  .00000020  00000-0  75656-4 0  9990
2 32953  82.5019 163.5633 0018774 191.2266 168.8404 12.43089449498556
Epoch (UTC): 19 May 2019 11:06:49
Eccentricity: 0.0018774
inclination: 82.5019°
perigee height: 1479 km
apogee height: 1508 km
right ascension of ascending node: 163.5633°
argument of perigee: 191.2266°
revolutions per day: 12.43089449
mean anomaly at epoch: 168.8404°
orbit number at epoch: 49855

The dashed part of the orbit path shows where the satellite is in the earth's shadow,  

DLR